Regional Weather Roundup
Issued by NWS

Home | Current Version | Previous Version | Graphics & Text | Print | Product List | Glossary On
Versions: 1 2 3 4 5 6 7 8 9 10 11 12 13 14 15 16 17 18 19 20 21 22 23 24 25 26 27 28 29 30 31 32 33 34 35 36 37 38 39 40 41 42 43 44 45 46 47 48 49 50
000
ASUS43 KLMK 202010
RWRKY
KENTUCKY REGIONAL WEATHER ROUNDUP
NATIONAL WEATHER SERVICE LOUISVILLE KY
400 PM EDT THU JUL 20 2017

NOTE "FAIR" INDICATES FEW OR NO CLOUDS BELOW 12,000 FEET
WITH NO SIGNIFICANT WEATHER AND/OR OBSTRUCTIONS TO VISIBILITY.

KYZ001>023-026-027-061>063-070>075-202100-
WESTERN AND SOUTH CENTRAL KENTUCKY

CITY           SKY/WX    TMP DP  RH WIND       PRES   REMARKS
PADUCAH        CLOUDY    93  74  53 VRB6      30.05F HX 103
HENDERSON      CLOUDY    93  72  50 SW6       30.04F HX 101
OWENSBORO      CLOUDY    93  72  50 SW8       30.05F HX 101
HOPKINSVILLE   MOSUNNY   92  73  53 W6        30.08F HX  99
BOWLING GREEN  CLOUDY    92  72  51 CALM      30.08F HX  99
GLASGOW        PTSUNNY   91  70  49 CALM      30.09F HX  97
$$

KYZ024-025-028>034-038-045-046-053-202100-
NORTH CENTRAL KENTUCKY

CITY           SKY/WX    TMP DP  RH WIND       PRES   REMARKS
LOUISVILLE/SDF CLOUDY    92  73  53 S8        30.04R HX 100
LOUISVILLE/LOU MOSUNNY   91  74  57 SW8       30.05R HX 100
FORT KNOX      PTSUNNY   90  74  58 SW8       30.05S HX  99
$$

KYZ035>037-039>044-047>052-055>060-089>105-202100-
NORTHEAST KENTUCKY

CITY           SKY/WX    TMP DP  RH WIND       PRES   REMARKS
LEXINGTON      CLOUDY    90  72  55 W7        30.08F HX  97
COVINGTON      CLOUDY    89  77  67 SW9G21    30.01F HX 101
FRANKFORT      PTSUNNY   89  72  56 S7        30.05F HX  96
$$

KYZ054-064>069-076>088-106>120-202100-
SOUTHEAST KENTUCKY

CITY           SKY/WX    TMP DP  RH WIND       PRES   REMARKS
JACKSON        CLOUDY    89  71  55 CALM      30.12F HX  95
LONDON         CLOUDY    90  67  46 N7        30.12F HX  93
SOMERSET       CLOUDY    88  68  51 N5        30.12F HX  91
MIDDLESBORO    CLOUDY    89  69  50 NW6       30.12F HX  94
MONTICELLO     CLOUDY    88  74  63 VRB7      30.13F HX  96
$$





USA.gov is the U.S. government's official web portal to all federal, state and local government web resources and services.